Radiation Dose at Monitoring Post of Fukushima Daini Nuclear Power Station
Date,Time,MP-1(microSv/h),MP-2(microSv/h),MP-3(microSv/h),MP-4(microSv/h),MP-5(microSv/h),MP-6(microSv/h),MP-7(microSv/h),Wind Direction,Wind Velocity(m/s),Rain
2020/04/25,00:00,0.174,0.160,0.262,0.239,0.256,0.139,0.085,south,1.1,No
2020/04/25,00:10,0.173,0.158,0.263,0.240,0.255,0.138,0.085,south-southwest,1.2,No
2020/04/25,00:20,0.173,0.159,0.262,0.239,0.254,0.138,0.085,south,1.2,No
2020/04/25,00:30,0.173,0.158,0.261,0.238,0.254,0.137,0.083,-,CALM,No
2020/04/25,00:40,0.173,0.158,0.262,0.238,0.255,0.136,0.083,northwest,1.0,No
2020/04/25,00:50,0.172,0.157,0.261,0.238,0.255,0.137,0.083,north-northwest,1.9,No
2020/04/25,01:00,0.172,0.157,0.261,0.239,0.253,0.137,0.083,north-northwest,3.5,No
2020/04/25,01:10,0.172,0.158,0.261,0.239,0.254,0.136,0.082,north-northwest,4.6,No
2020/04/25,01:20,0.172,0.158,0.260,0.237,0.253,0.136,0.083,northwest,4.3,No
2020/04/25,01:30,0.171,0.158,0.262,0.238,0.254,0.136,0.082,northwest,4.9,No
2020/04/25,01:40,0.173,0.157,0.261,0.238,0.253,0.136,0.084,northwest,5.2,No
2020/04/25,01:50,0.172,0.157,0.260,0.238,0.253,0.136,0.083,northwest,5.2,No
2020/04/25,02:00,0.171,0.157,0.261,0.239,0.254,0.136,0.083,northwest,4.9,No
2020/04/25,02:10,0.172,0.158,0.261,0.238,0.253,0.135,0.083,northwest,4.6,No
2020/04/25,02:20,0.172,0.157,0.259,0.239,0.254,0.137,0.082,northwest,4.3,No
2020/04/25,02:30,0.172,0.158,0.261,0.238,0.251,0.135,0.082,northwest,4.5,No
2020/04/25,02:40,0.172,0.158,0.262,0.237,0.252,0.137,0.082,northwest,3.1,No
2020/04/25,02:50,0.170,0.158,0.260,0.238,0.254,0.135,0.083,northwest,2.9,No
2020/04/25,03:00,0.172,0.158,0.262,0.238,0.253,0.135,0.082,north-northwest,1.2,No
2020/04/25,03:10,0.172,0.157,0.261,0.238,0.252,0.134,0.082,north,1.4,No
2020/04/25,03:20,0.172,0.156,0.261,0.238,0.253,0.135,0.082,west-northwest,0.9,No
2020/04/25,03:30,0.172,0.158,0.261,0.238,0.254,0.135,0.083,west-northwest,1.4,No
2020/04/25,03:40,0.172,0.157,0.260,0.238,0.253,0.136,0.083,northwest,2.2,No
2020/04/25,03:50,0.171,0.158,0.260,0.237,0.253,0.136,0.082,northwest,2.8,No
2020/04/25,04:00,0.172,0.157,0.260,0.238,0.253,0.136,0.082,west-northwest,3.2,No
2020/04/25,04:10,0.172,0.158,0.261,0.239,0.253,0.134,0.082,west-northwest,2.2,No
2020/04/25,04:20,0.172,0.157,0.261,0.238,0.253,0.136,0.082,west-northwest,2.3,No
2020/04/25,04:30,0.172,0.158,0.260,0.238,0.253,0.135,0.082,west,1.7,No
2020/04/25,04:40,0.172,0.158,0.261,0.237,0.253,0.136,0.082,west-northwest,1.4,No
2020/04/25,04:50,0.171,0.157,0.260,0.237,0.252,0.136,0.082,west-northwest,1.7,No
2020/04/25,05:00,0.172,0.158,0.260,0.238,0.253,0.135,0.082,north-northwest,3.6,No
2020/04/25,05:10,0.172,0.157,0.261,0.238,0.253,0.136,0.083,northwest,3.0,No
2020/04/25,05:20,0.170,0.158,0.261,0.238,0.253,0.135,0.083,northwest,3.6,No
2020/04/25,05:30,0.172,0.157,0.261,0.237,0.253,0.136,0.082,northwest,4.4,No
2020/04/25,05:40,0.172,0.157,0.262,0.239,0.253,0.135,0.082,northwest,5.2,No
2020/04/25,05:50,0.171,0.158,0.260,0.238,0.254,0.136,0.082,northwest,4.1,No
2020/04/25,06:00,0.173,0.158,0.261,0.239,0.252,0.135,0.083,northwest,3.7,No
2020/04/25,06:10,0.172,0.158,0.262,0.238,0.253,0.135,0.082,-,CALM,No
2020/04/25,06:20,0.171,0.158,0.261,0.238,0.253,0.135,0.082,-,CALM,No
2020/04/25,06:30,0.172,0.157,0.262,0.238,0.253,0.135,0.082,southwest,0.7,No
2020/04/25,06:40,0.172,0.157,0.260,0.237,0.253,0.136,0.082,south,1.4,No
2020/04/25,06:50,0.171,0.157,0.260,0.237,0.253,0.135,0.082,south,1.8,No
2020/04/25,07:00,0.172,0.157,0.261,0.238,0.254,0.135,0.082,south-southwest,1.7,No
2020/04/25,07:10,0.173,0.157,0.259,0.237,0.253,0.136,0.082,south-southwest,1.8,No
2020/04/25,07:20,0.171,0.158,0.260,0.238,0.254,0.137,0.082,southwest,1.9,No
2020/04/25,07:30,0.172,0.157,0.258,0.236,0.254,0.135,0.082,southwest,0.8,No
2020/04/25,07:40,0.172,0.157,0.259,0.237,0.254,0.135,0.083,west-southwest,1.7,No
2020/04/25,07:50,0.171,0.157,0.258,0.237,0.255,0.135,0.082,southwest,1.6,No
2020/04/25,08:00,0.172,0.157,0.260,0.236,0.253,0.135,0.082,-,CALM,No
2020/04/25,08:10,0.170,0.156,0.258,0.237,0.253,0.134,0.083,south-southeast,2.1,No
2020/04/25,08:20,0.172,0.156,0.261,0.237,0.253,0.135,0.082,east-southeast,3.7,No
2020/04/25,08:30,0.170,0.157,0.259,0.238,0.253,0.135,0.083,southeast,3.1,No
2020/04/25,08:40,0.172,0.156,0.261,0.238,0.254,0.134,0.082,south-southeast,3.5,No
2020/04/25,08:50,0.170,0.157,0.259,0.237,0.255,0.135,0.083,south-southeast,5.3,No
2020/04/25,09:00,0.173,0.156,0.262,0.238,0.254,0.135,0.082,south-southeast,5.9,No
2020/04/25,09:10,0.170,0.157,0.260,0.238,0.253,0.136,0.082,south-southeast,6.5,No
2020/04/25,09:20,0.172,0.157,0.261,0.238,0.254,0.135,0.083,south-southeast,7.3,No
2020/04/25,09:30,0.171,0.158,0.261,0.238,0.253,0.136,0.083,south-southeast,7.7,No
2020/04/25,09:40,0.172,0.157,0.262,0.241,0.255,0.135,0.082,south-southeast,8.4,No
2020/04/25,09:50,0.172,0.159,0.262,0.238,0.252,0.135,0.084,south-southeast,9.0,No
2020/04/25,10:00,0.171,0.157,0.261,0.240,0.256,0.135,0.083,south-southeast,8.5,No
2020/04/25,10:10,0.173,0.158,0.262,0.239,0.254,0.136,0.083,south-southeast,9.2,No
2020/04/25,10:20,0.172,0.158,0.262,0.241,0.253,0.136,0.083,south-southeast,8.6,No
2020/04/25,10:30,0.173,0.158,0.263,0.239,0.254,0.136,0.083,south,8.6,No
2020/04/25,10:40,0.170,0.157,0.261,0.241,0.254,0.136,0.083,south,10.3,No
2020/04/25,10:50,0.172,0.158,0.263,0.238,0.255,0.136,0.082,south,10.7,No
2020/04/25,11:00,0.172,0.157,0.262,0.241,0.255,0.135,0.083,south,11.7,No
2020/04/25,11:10,0.171,0.158,0.265,0.239,0.256,0.136,0.083,south-southeast,8.1,No
2020/04/25,11:20,0.172,0.158,0.261,0.240,0.252,0.136,0.083,south,10.3,No
2020/04/25,11:30,0.172,0.159,0.263,0.239,0.256,0.136,0.083,south,11.7,No
2020/04/25,11:40,0.172,0.157,0.264,0.241,0.254,0.137,0.084,south-southeast,11.1,No
2020/04/25,11:50,0.172,0.158,0.263,0.240,0.254,0.136,0.083,south-southeast,10.6,No
2020/04/25,12:00,0.171,0.157,0.263,0.241,0.254,0.138,0.083,south,11.1,No
2020/04/25,12:10,0.173,0.159,0.262,0.240,0.256,0.136,0.083,south,11.5,No
2020/04/25,12:20,0.172,0.157,0.265,0.240,0.255,0.137,0.083,south-southeast,10.9,No
2020/04/25,12:30,0.172,0.159,0.262,0.240,0.255,0.136,0.083,south-southeast,9.3,No
2020/04/25,12:40,0.172,0.157,0.266,0.242,0.255,0.137,0.083,south-southeast,9.3,No
2020/04/25,12:50,0.172,0.158,0.262,0.241,0.255,0.137,0.083,south-southeast,12.0,No
2020/04/25,13:00,0.173,0.158,0.265,0.242,0.255,0.136,0.083,south-southeast,12.3,No
2020/04/25,13:10,0.172,0.158,0.265,0.241,0.254,0.136,0.083,south-southeast,12.0,No
2020/04/25,13:20,0.172,0.158,0.264,0.241,0.256,0.137,0.083,south-southeast,10.9,No
2020/04/25,13:30,0.172,0.159,0.265,0.241,0.255,0.137,0.084,south,13.1,No
2020/04/25,13:40,0.173,0.158,0.264,0.241,0.257,0.135,0.083,south,12.0,No
2020/04/25,13:50,0.173,0.159,0.265,0.241,0.254,0.137,0.083,south-southeast,11.2,No
2020/04/25,14:00,0.171,0.157,0.263,0.241,0.256,0.137,0.083,south,12.2,No
2020/04/25,14:10,0.173,0.159,0.267,0.242,0.255,0.137,0.084,south-southeast,13.3,No
2020/04/25,14:20,0.172,0.158,0.264,0.242,0.256,0.137,0.083,south,13.4,No
2020/04/25,14:30,0.173,0.159,0.266,0.241,0.256,0.137,0.084,south,12.6,No
2020/04/25,14:40,0.173,0.158,0.265,0.242,0.255,0.136,0.082,south-southeast,11.1,No
2020/04/25,14:50,0.170,0.159,0.266,0.241,0.257,0.138,0.083,south,11.2,No
2020/04/25,15:00,0.174,0.157,0.265,0.243,0.254,0.137,0.083,south,11.4,No
2020/04/25,15:10,0.172,0.158,0.265,0.241,0.257,0.137,0.083,south-southeast,10.9,No
2020/04/25,15:20,0.172,0.159,0.267,0.243,0.256,0.138,0.083,south,12.9,No
2020/04/25,15:30,0.174,0.159,0.265,0.241,0.255,0.136,0.083,south,12.2,No
2020/04/25,15:40,0.173,0.158,0.266,0.242,0.255,0.137,0.083,south,11.2,No
2020/04/25,15:50,0.174,0.160,0.266,0.243,0.254,0.137,0.084,south,10.4,No
2020/04/25,16:00,0.173,0.159,0.266,0.242,0.256,0.138,0.083,south,10.1,No
2020/04/25,16:10,0.173,0.159,0.267,0.244,0.254,0.137,0.082,south,9.8,No
2020/04/25,16:20,0.172,0.159,0.267,0.242,0.256,0.137,0.083,south,10.6,No
2020/04/25,16:30,0.174,0.158,0.267,0.243,0.255,0.137,0.083,south,9.8,No
2020/04/25,16:40,0.174,0.159,0.267,0.242,0.258,0.137,0.083,south,7.6,No
2020/04/25,16:50,0.174,0.159,0.268,0.243,0.256,0.138,0.084,south-southwest,9.8,No
2020/04/25,17:00,0.173,0.159,0.267,0.243,0.255,0.137,0.083,south-southwest,8.2,No
2020/04/25,17:10,0.174,0.160,0.267,0.242,0.256,0.137,0.083,south-southwest,9.0,No
2020/04/25,17:20,0.173,0.159,0.268,0.243,0.255,0.137,0.084,south-southwest,9.0,No
2020/04/25,17:30,0.174,0.160,0.266,0.243,0.256,0.137,0.084,south-southwest,9.2,No
2020/04/25,17:40,0.173,0.159,0.266,0.243,0.257,0.138,0.083,south-southwest,9.2,No
2020/04/25,17:50,0.174,0.158,0.267,0.242,0.258,0.138,0.083,south-southwest,11.2,No
2020/04/25,18:00,0.173,0.159,0.267,0.243,0.256,0.138,0.084,south-southwest,11.1,No
2020/04/25,18:10,0.173,0.160,0.267,0.244,0.256,0.137,0.083,south-southwest,9.0,No
2020/04/25,18:20,0.174,0.158,0.266,0.244,0.258,0.138,0.083,south-southwest,11.2,No
2020/04/25,18:30,0.173,0.159,0.268,0.243,0.255,0.137,0.083,south-southwest,10.4,No
2020/04/25,18:40,0.175,0.159,0.267,0.244,0.257,0.137,0.083,south-southwest,11.8,No
2020/04/25,18:50,0.173,0.158,0.267,0.243,0.256,0.137,0.084,south-southwest,10.6,No
2020/04/25,19:00,0.175,0.161,0.268,0.243,0.256,0.137,0.084,south-southwest,10.1,No
2020/04/25,19:10,0.173,0.159,0.267,0.243,0.257,0.138,0.083,south-southwest,9.3,No
2020/04/25,19:20,0.173,0.158,0.266,0.242,0.255,0.137,0.084,south-southwest,9.3,No
2020/04/25,19:30,0.174,0.159,0.268,0.244,0.257,0.138,0.084,south-southwest,9.5,No
2020/04/25,19:40,0.173,0.158,0.266,0.243,0.257,0.138,0.083,south-southwest,9.6,No
2020/04/25,19:50,0.173,0.160,0.267,0.243,0.255,0.137,0.083,south-southwest,11.2,No
2020/04/25,20:00,0.173,0.159,0.268,0.243,0.258,0.138,0.084,south-southwest,10.1,No
2020/04/25,20:10,0.174,0.160,0.266,0.243,0.257,0.137,0.083,south-southwest,10.3,No
2020/04/25,20:20,0.173,0.159,0.268,0.242,0.255,0.137,0.084,south-southwest,10.3,No
2020/04/25,20:30,0.174,0.159,0.267,0.244,0.258,0.138,0.083,south-southwest,9.5,No
2020/04/25,20:40,0.173,0.159,0.267,0.243,0.255,0.137,0.084,south-southwest,8.7,No
2020/04/25,20:50,0.173,0.158,0.268,0.243,0.257,0.137,0.083,south-southwest,8.3,No
2020/04/25,21:00,0.174,0.159,0.266,0.244,0.257,0.138,0.084,south-southwest,9.0,No
2020/04/25,21:10,0.174,0.159,0.268,0.244,0.256,0.138,0.083,south-southwest,9.0,No
2020/04/25,21:20,0.175,0.158,0.268,0.243,0.257,0.137,0.084,south-southwest,9.0,No
2020/04/25,21:30,0.173,0.160,0.266,0.244,0.257,0.138,0.083,south,9.0,No
2020/04/25,21:40,0.173,0.159,0.267,0.242,0.256,0.138,0.083,south-southwest,9.2,No
2020/04/25,21:50,0.173,0.159,0.268,0.243,0.258,0.137,0.083,south-southwest,9.2,No
2020/04/25,22:00,0.174,0.160,0.267,0.243,0.255,0.137,0.083,south-southwest,8.7,No
2020/04/25,22:10,0.174,0.159,0.267,0.243,0.256,0.138,0.083,south-southwest,8.4,No
2020/04/25,22:20,0.173,0.160,0.268,0.244,0.257,0.138,0.083,south-southwest,8.3,No
2020/04/25,22:30,0.174,0.159,0.267,0.243,0.256,0.137,0.083,south-southwest,7.7,No
2020/04/25,22:40,0.173,0.159,0.267,0.243,0.258,0.137,0.083,south,7.3,No
2020/04/25,22:50,0.173,0.158,0.268,0.244,0.257,0.137,0.083,south,8.2,No
2020/04/25,23:00,0.174,0.159,0.265,0.244,0.256,0.138,0.084,south-southwest,8.4,No
2020/04/25,23:10,0.173,0.160,0.267,0.243,0.257,0.137,0.084,south,8.3,No
2020/04/25,23:20,0.174,0.158,0.266,0.244,0.257,0.138,0.084,south,9.0,No
2020/04/25,23:30,0.174,0.159,0.267,0.244,0.257,0.138,0.083,south,9.8,No
2020/04/25,23:40,0.173,0.159,0.267,0.243,0.256,0.138,0.083,south-southwest,8.1,No
2020/04/25,23:50,0.173,0.160,0.267,0.244,0.256,0.138,0.083,south-southwest,9.2,No
